This is the latest recevied weather packets stored in our database for station/object OK2ZA-6. If no packets are shown the sender has not sent any weather packets the latest 10 day(s).
| Time | Temp. | Humidity | Pressure | Rain* | Wind** | Luminosity | Snow |
|---|---|---|---|---|---|---|---|
| 1777504204 | 0° C | 58% | 1028.8 hPa | 0 mm | - | - | - |
| 1777503604 | 0.56° C | 57% | 1028.8 hPa | 0 mm | - | - | - |
| 1777503005 | 0.56° C | 57% | 1028.7 hPa | 0 mm | - | - | - |
| 1777502404 | 0.56° C | 57% | 1028.7 hPa | 0 mm | - | - | - |
| 1777501804 | 0.56° C | 57% | 1028.6 hPa | 0 mm | - | - | - |
| 1777501204 | 1.11° C | 55% | 1028.6 hPa | 0 mm | - | - | - |
| 1777500603 | 1.67° C | 54% | 1028.5 hPa | 0 mm | - | - | - |
| 1777500005 | 1.67° C | 53% | 1028.4 hPa | 0 mm | - | - | - |
| 1777499404 | 1.67° C | 52% | 1028.4 hPa | 0 mm | - | - | - |
| 1777498803 | 2.22° C | 51% | 1028.4 hPa | 0 mm | - | - | - |
| 1777498204 | 2.22° C | 51% | 1028.3 hPa | 0 mm | - | - | - |
| 1777497603 | 2.22° C | 50% | 1028.1 hPa | 0 mm | - | - | - |
| 1777497004 | 2.78° C | 49% | 1028.1 hPa | 0 mm | - | - | - |
| 1777496404 | 2.78° C | 49% | 1028 hPa | 0 mm | - | - | - |
| 1777495803 | 3.33° C | 48% | 1028 hPa | 0 mm | - | - | - |
| 1777495203 | 3.33° C | 48% | 1027.8 hPa | 0 mm | - | - | - |
| 1777494603 | 3.33° C | 48% | 1027.9 hPa | 0 mm | - | - | - |
| 1777494003 | 3.33° C | 47% | 1027.6 hPa | 0 mm | - | - | - |
| 1777493404 | 3.89° C | 45% | 1027.6 hPa | 0 mm | - | - | - |
| 1777492804 | 4.44° C | 44% | 1027.4 hPa | 0 mm | - | - | - |
| 1777492204 | 4.44° C | 44% | 1027.4 hPa | 0 mm | - | - | - |
| 1777491605 | 4.44° C | 44% | 1027.2 hPa | 0 mm | - | - | - |
| 1777491004 | 5° C | 43% | 1027.1 hPa | 0 mm | - | - | - |
| 1777490404 | 5° C | 43% | 1027 hPa | 0 mm | - | - | - |
| 1777489804 | 5° C | 42% | 1026.8 hPa | 0 mm | - | - | - |
* Rain latest hour (hover to see other rain measurements)
** Current wind speed in m/s (hover to see current wind gust speed)